Wind_Speed
4 4 4 3 3 3 3 3 3 4 5 5 5 6 7 7 7 7 6 6 6 5 6 6 4 4 3 6 10 12 11 12 14 19 14 9 13 14 16 14 11 9 9 8 4 2 5 3 1 5 7 3 2 1 1 1 2 4 3 3 1 3 2 1 4 5 3 6 4 3 3 8 7 1 2 6 11 9 11 10 8 12 13 11 11 10 12 13
5 5 5 4 4 4 4 5 5 6 6 7 7 7 7 7 8 8 7 6 5 5 4 4 3 3 3 8 11 9 7 7 15 18 13 12 15 15 16 14 10 9 9 7 4 2 5 2 1 4 4 1 2 2 2 1 3 4 3 2 2 3 2 3 2 3 4 8 7 5 5 6 4 1 2 4 5 6 11 8 6 10 10 11 12 14 16 16
5 5 5 5 5 5 5 6 6 6 7 8 7 8 8 8 8 8 8 7 5 4 3 3 2 2 3 10 11 5 2 5 11 11 13 16 16 16 17 12 8 7 8 7 5 2 3 3 2 4 4 2 1 2 3 3 2 2 3 3 3 4 3 6 4 3 5 9 11 7 5 7 5 3 2 7 6 7 8 4 4 7 5 6 8 12 16 18
5 5 5 6 5 5 5 5 6 6 6 7 8 8 8 8 8 8 7 6 4 3 1 2 1 1 1 8 9 4 1 6 5 8 15 18 17 17 15 10 7 7 8 7 4 1 1 3 4 5 4 1 3 3 3 3 1 2 4 2 2 4 4 7 5 6 7 8 10 7 6 8 4 5 3 5 8 6 2 1 2 4 3 3 5 9 14 17
6 6 6 6 5 5 5 5 6 6 7 8 8 8 9 8 8 7 7 5 3 2 0 1 1 1 1 6 7 3 2 4 3 10 18 19 18 16 13 8 6 7 8 6 2 1 2 3 5 6 4 1 4 4 2 3 3 4 4 1 3 3 5 4 5 7 6 6 9 7 7 5 1 5 6 2 6 3 1 1 2 3 3 3 4 8 12 15
6 6 6 6 6 5 5 5 6 7 8 8 7 8 8 8 8 7 5 3 2 1 1 1 1 1 2 5 5 3 4 2 6 13 17 20 18 14 11 6 5 6 6 4 0 2 2 3 5 3 3 3 2 3 1 4 3 5 3 5 6 4 6 3 4 6 5 7 8 5 5 4 5 6 6 6 6 2 2 3 4 5 5 5 6 8 10 12
7 7 7 6 5 4 4 5 6 6 5 5 5 6 6 7 7 6 4 3 2 2 2 2 0 1 6 9 9 6 6 1 10 15 18 22 17 11 8 5 5 5 3 1 0 2 3 4 3 4 5 3 2 3 2 4 7 7 4 4 7 8 8 5 5 6 8 11 7 5 7 4 5 6 3 6 5 3 5 7 7 7 7 8 8 8 10 11
8 8 7 6 5 4 5 6 6 4 3 3 3 4 5 5 6 7 5 3 3 3 3 3 2 6 10 8 7 6 4 4 15 17 20 22 12 9 8 4 3 2 3 4 1 3 2 3 3 4 5 2 3 5 3 6 8 7 5 3 5 7 8 7 8 10 11 10 8 11 11 6 5 6 4 4 3 3 6 8 8 8 8 8 7 8 9 10
8 8 8 8 6 6 7 7 5 3 2 2 3 3 3 4 5 7 6 5 3 3 4 4 6 10 7 3 5 4 4 10 16 17 21 19 8 7 7 5 4 2 6 7 3 4 2 1 3 4 5 2 5 4 2 5 3 4 6 5 7 8 6 7 8 8 9 5 6 14 10 3 4 4 4 1 1 3 5 6 6 6 6 5 5 6 7 8
8 9 10 9 8 8 9 8 6 3 2 1 2 3 1 3 6 9 7 5 4 3 4 6 7 8 3 3 6 4 7 13 15 17 19 11 6 6 8 8 6 5 6 8 7 5 1 3 4 4 7 5 5 5 6 3 6 9 13 10 10 9 4 5 6 5 6 3 3 10 6 1 0 1 2 3 1 4 5 5 4 4 4 3 4 4 5 6
8 9 10 9 8 9 9 8 7 5 3 3 3 5 6 8 11 11 8 6 5 7 10 12 11 9 11 11 7 3 10 14 15 17 13 7 8 9 11 10 9 8 6 7 9 6 3 3 5 4 4 4 5 7 8 8 12 13 15 13 8 7 5 4 5 2 3 4 3 10 8 1 4 2 2 4 4 5 4 3 3 3 2 1 2 3 4 5
8 9 9 9 8 8 9 8 7 7 5 6 7 8 11 14 15 13 12 12 13 17 18 16 11 9 15 14 5 4 10 14 16 15 9 7 10 11 11 11 11 10 6 7 7 5 4 2 7 6 1 5 5 5 5 6 10 8 7 11 4 3 5 4 3 2 2 3 4 5 5 3 4 1 2 4 5 5 4 3 2 1 1 0 1 1 2 3
7 8 9 8 7 8 8 8 7 8 7 8 9 11 14 15 16 15 15 16 16 15 10 4 3 2 7 6 3 9 12 14 16 13 10 8 9 10 10 10 11 12 12 12 10 9 8 7 14 10 3 7 4 3 7 4 4 4 4 7 4 2 5 6 4 3 4 5 5 1 1 3 3 3 3 4 5 5 4 3 3 2 2 1 1 1 2 3
6 7 8 7 6 7 8 8 8 9 9 11 12 13 14 14 15 14 12 10 9 7 5 4 5 6 7 2 1 12 14 14 18 18 15 9 7 9 10 11 13 14 15 16 14 13 12 15 20 11 3 5 6 7 8 2 4 4 3 4 4 3 1 5 5 3 4 3 2 2 1 4 5 5 5 4 5 6 5 4 4 3 3 3 3 3 3 4
6 6 7 7 6 7 9 10 11 11 12 12 13 14 13 13 12 11 10 7 7 6 5 7 7 7 7 2 0 12 16 16 21 20 17 12 8 8 10 12 13 15 16 15 13 13 15 18 17 8 3 5 7 8 5 3 4 3 3 1 2 3 1 4 4 3 1 1 2 4 2 3 5 7 6 5 5 5 5 5 5 5 5 4 4 4 3 5
6 6 7 6 5 7 10 13 14 14 14 14 15 15 14 14 12 11 9 7 8 7 5 4 3 5 6 1 4 11 14 16 19 17 14 15 12 6 6 9 10 11 13 14 13 12 18 19 9 4 5 4 5 7 4 4 3 3 3 3 1 3 2 1 1 3 1 2 2 2 2 2 3 5 7 6 6 6 5 6 6 5 5 5 4 4 4 5
6 6 6 5 4 6 10 15 17 17 16 15 15 14 14 13 11 10 9 8 9 9 10 8 5 5 5 4 5 7 9 12 16 16 13 13 14 9 5 5 4 5 6 13 15 11 12 11 2 1 6 4 3 5 4 2 2 2 2 2 1 3 3 2 3 2 5 1 1 3 2 3 3 2 7 7 7 6 5 7 7 6 6 5 5 4 5 5
5 5 5 4 4 7 11 14 17 20 21 20 20 19 20 19 15 14 10 6 3 5 9 10 8 5 3 7 5 8 12 12 14 17 14 9 11 13 12 7 4 6 4 8 13 9 6 5 3 3 5 4 5 5 3 3 4 4 2 3 2 2 3 2 3 2 7 2 1 3 1 3 3 2 6 6 7 7 7 7 6 7 6 5 6 5 6 6
5 5 4 3 3 7 10 13 17 20 20 18 16 16 16 17 18 21 23 15 5 3 3 5 5 4 1 6 7 12 11 8 12 18 19 14 8 8 14 11 6 6 5 3 6 7 3 4 5 4 3 4 3 1 3 4 4 7 5 4 5 3 1 1 1 1 3 4 3 2 2 3 2 4 6 5 5 6 7 6 5 6 6 6 6 6 7 7
5 4 3 2 2 6 10 14 15 15 13 9 5 4 4 6 9 10 16 16 6 2 3 1 1 3 1 4 10 14 7 4 10 19 26 20 8 5 10 10 7 8 6 2 3 5 3 6 5 2 4 5 5 4 4 2 1 5 5 5 4 3 1 2 1 2 1 2 2 2 3 4 4 6 6 5 4 6 8 7 7 7 7 7 7 8 9 9
6 5 4 2 1 6 11 14 13 13 9 3 1 3 2 2 4 1 2 7 3 3 6 1 1 3 1 2 11 12 3 3 10 21 31 20 6 5 7 7 7 6 4 2 3 4 5 6 3 4 5 6 4 2 4 2 4 5 6 6 4 2 1 1 1 3 3 0 2 2 2 5 6 6 6 5 6 9 9 9 9 9 9 8 9 10 10 8
7 6 5 2 1 5 11 14 13 12 7 2 2 4 2 4 8 8 5 5 2 5 6 3 4 4 2 3 13 10 4 7 10 17 28 21 9 5 4 6 7 2 5 4 2 4 6 4 4 6 4 2 3 3 4 6 6 5 4 5 3 1 0 1 1 4 4 0 2 2 2 6 6 6 7 7 8 8 8 10 10 10 10 9 10 11 10 9
9 7 5 2 1 5 10 14 14 11 6 3 1 5 8 11 13 10 6 6 1 4 5 6 6 6 6 6 15 12 7 7 4 11 24 17 7 4 4 6 7 3 6 6 4 4 4 2 5 4 1 4 5 6 5 6 5 4 4 4 2 1 2 1 2 3 3 1 1 1 1 5 5 4 8 9 9 7 7 9 10 9 11 11 11 10 10 12
10 6 3 1 2 5 8 11 11 7 4 2 4 10 14 14 12 7 5 5 2 2 2 2 2 4 4 5 13 9 5 4 1 8 20 12 3 3 4 4 6 5 5 5 8 8 3 3 3 3 4 5 6 7 7 6 4 3 3 5 3 2 3 2 1 1 2 3 3 2 2 5 4 4 8 5 5 8 8 8 10 11 11 10 9 11 12 12
9 5 2 1 3 6 7 7 6 4 5 5 10 16 16 13 8 4 4 4 3 3 2 1 1 4 3 6 13 4 3 3 1 5 14 9 3 2 3 2 4 3 3 3 8 8 3 2 1 4 5 6 6 6 5 3 3 3 0 3 4 5 4 2 1 2 3 3 1 3 3 5 3 4 10 3 3 9 7 8 14 13 10 10 11 12 12 11
9 4 1 2 5 8 6 4 4 6 5 5 12 17 14 11 5 1 3 5 3 4 4 2 2 6 6 8 12 2 3 4 2 6 12 10 4 2 4 3 3 2 3 2 5 3 2 3 4 6 5 7 7 4 2 2 5 2 1 2 4 5 5 4 3 2 1 2 2 2 2 4 5 5 8 4 5 10 6 9 15 13 10 12 12 13 12 12
9 3 2 4 7 9 5 2 6 8 3 5 14 17 13 9 3 0 3 6 4 2 4 3 2 7 5 6 8 2 2 5 3 7 12 11 6 2 5 3 2 2 1 3 3 1 2 5 7 6 6 7 6 3 1 4 6 1 2 2 3 5 5 5 4 3 1 1 2 1 3 2 5 5 4 1 4 10 9 12 15 13 13 14 14 14 13 13
10 3 3 4 9 11 3 3 10 7 2 10 17 14 12 7 2 1 5 4 3 1 1 3 3 5 5 6 10 6 1 5 2 4 11 13 9 4 5 3 2 1 1 4 2 1 1 4 6 5 6 5 2 1 1 4 3 1 2 1 3 4 5 4 4 3 1 2 3 3 2 1 6 5 2 1 3 9 11 14 15 15 15 15 15 15 15 14
10 3 3 4 9 11 4 4 8 5 6 15 16 12 10 4 1 4 6 2 2 2 0 2 4 5 6 6 8 5 3 4 3 5 11 11 10 7 5 2 5 4 3 5 5 2 0 1 0 3 4 1 3 3 3 3 1 2 3 4 4 4 4 4 4 3 3 2 4 6 3 2 6 6 2 1 3 8 11 11 11 12 12 13 14 14 15 13
10 4 5 6 8 9 6 5 6 7 12 16 14 11 7 1 4 6 3 1 1 2 1 2 3 4 6 6 5 6 6 4 3 6 7 5 8 9 4 2 4 6 5 6 4 1 1 1 1 3 2 2 3 2 2 2 1 3 4 4 5 5 4 3 2 3 3 3 6 6 4 3 3 6 4 3 5 7 8 6 7 7 8 10 11 12 12 11
11 6 5 6 7 8 6 5 7 12 15 15 13 8 2 3 5 5 0 2 1 2 2 4 3 4 7 5 4 5 5 5 6 6 6 5 7 8 4 2 3 5 5 5 4 4 4 2 1 1 0 1 1 1 2 3 3 4 3 3 4 3 3 3 4 3 2 5 6 4 0 3 3 7 5 5 7 6 7 6 6 7 8 8 9 10 10 9
12 9 5 5 6 7 6 7 11 14 14 14 10 4 4 2 3 1 2 3 2 2 2 1 2 4 4 3 4 5 3 4 5 5 3 3 4 4 4 1 1 3 3 2 3 4 2 1 2 2 1 1 2 0 2 4 4 4 3 4 3 3 4 2 3 1 3 5 4 3 3 1 7 10 9 10 11 9 9 9 8 7 8 8 7 8 7 7
14 10 8 8 7 8 10 11 12 13 13 12 6 5 7 4 0 2 2 2 1 1 0 0 2 2 2 3 4 4 2 2 4 4 1 1 4 3 2 1 1 2 0 1 1 3 3 4 4 3 1 1 4 2 0 1 3 3 3 4 2 1 2 3 4 2 4 4 3 3 2 3 5 7 11 14 13 9 8 9 9 8 8 8 7 6 6 6
17 14 13 14 13 13 13 12 12 13 12 8 4 5 5 1 2 1 2 2 1 2 1 1 3 2 3 3 2 3 2 1 2 3 2 3 4 2 3 3 3 2 3 2 1 1 1 3 2 1 1 1 4 2 3 3 2 1 3 3 2 4 3 3 4 3 5 3 4 3 1 4 4 3 6 9 8 5 4 7 7 7 8 7 6 5 6 7
19 19 18 17 14 13 12 11 11 10 7 5 6 5 3 2 3 2 2 3 1 2 1 1 3 4 4 3 2 1 1 1 2 4 4 3 2 0 2 3 3 2 3 1 1 1 2 4 4 3 2 2 3 1 3 4 2 0 2 3 1 3 4 1 3 5 2 2 3 2 3 6 5 6 7 5 6 7 6 6 5 8 9 5 6 8 7 8
14 18 20 18 14 10 8 8 8 5 3 6 7 4 2 3 2 2 2 1 0 1 1 2 3 4 3 4 3 3 1 1 2 3 2 2 1 2 1 2 2 1 2 2 2 1 2 3 4 3 1 3 2 2 2 2 1 1 1 1 3 3 5 4 2 0 3 1 3 1 5 6 4 7 7 3 5 8 7 7 8 10 8 5 7 9 8 8
7 12 16 19 16 8 4 4 3 2 3 7 6 2 3 3 2 3 2 1 0 2 3 1 1 2 1 2 3 4 3 2 1 2 1 1 1 3 1 2 1 1 2 3 2 2 3 3 5 1 1 2 1 3 3 2 2 2 1 3 2 1 4 3 0 3 3 2 4 2 6 7 3 5 6 6 6 9 8 8 9 9 7 6 9 9 8 9
2 6 10 18 17 8 3 2 2 3 6 7 4 2 2 1 1 2 3 2 1 3 5 2 1 0 2 1 3 4 3 2 1 2 1 1 1 3 2 2 2 0 1 1 1 1 3 2 6 1 2 4 3 3 2 3 1 2 2 2 2 1 1 1 1 2 2 3 5 4 6 6 5 5 5 6 9 9 9 8 7 9 9 8 9 10 10 9
1 3 5 15 15 7 4 2 3 6 7 5 2 2 2 1 1 2 3 2 1 3 3 2 1 1 2 3 2 3 2 1 0 2 1 1 1 2 3 1 2 1 1 2 3 1 2 1 4 3 2 3 3 1 2 2 2 2 1 1 2 3 3 1 1 2 2 3 5 4 5 6 6 6 6 9 12 10 10 9 8 10 11 9 8 8 8 8
2 2 2 13 13 5 5 6 7 8 6 3 3 2 1 1 1 1 1 0 1 1 1 3 2 2 2 2 2 1 1 1 2 1 1 1 1 2 2 2 2 2 1 2 2 1 2 2 3 5 3 1 1 2 5 5 3 1 1 1 1 1 1 0 0 2 3 2 3 2 7 9 5 5 8 11 11 10 11 10 9 10 10 8 8 8 7 7
4 3 3 14 9 1 4 10 8 5 4 3 2 2 1 2 2 1 2 1 0 1 1 4 4 2 2 1 1 2 0 0 1 1 1 2 1 2 2 4 4 3 3 2 1 1 1 3 3 3 2 2 5 4 4 5 5 5 4 4 3 3 3 1 3 2 2 2 4 2 8 12 4 6 8 11 11 10 9 9 9 9 9 8 8 8 8 7
6 3 4 12 5 4 7 8 3 2 4 2 1 2 1 1 2 1 0 1 0 1 2 3 2 2 2 2 1 2 1 0 1 1 2 3 3 3 2 5 5 3 3 2 3 2 2 3 1 4 4 4 6 3 1 3 4 4 3 3 4 4 5 4 4 4 1 2 2 4 5 12 4 7 8 8 7 8 6 7 8 9 8 8 8 8 7 7
4 3 4 10 2 5 9 6 2 4 3 0 0 1 1 2 2 1 0 1 0 1 2 1 1 1 1 1 1 2 2 2 2 2 2 3 3 4 4 6 6 3 3 1 2 1 1 2 1 4 5 3 4 4 2 1 2 2 3 3 4 3 4 5 5 3 2 4 3 2 5 11 5 4 6 5 4 6 5 6 7 8 8 7 8 8 7 8
2 3 3 9 1 3 4 4 2 2 1 0 2 1 2 1 2 1 1 1 1 2 2 1 1 0 1 1 2 2 2 1 1 2 1 2 3 2 4 6 5 2 2 2 2 1 1 0 1 3 6 7 6 6 5 4 1 3 4 2 3 4 6 4 3 3 1 7 8 4 9 12 5 2 4 4 4 7 8 6 6 7 8 8 7 8 8 8
3 1 2 10 11 6 4 4 5 5 3 3 4 1 1 1 0 1 2 1 1 2 2 1 1 1 2 2 2 1 1 1 1 2 1 1 4 1 2 5 5 2 2 3 2 0 2 2 2 1 3 5 5 5 4 3 1 2 2 2 4 5 7 4 2 3 3 6 7 6 12 15 9 6 9 9 7 9 11 8 6 8 9 9 8 8 8 8
2 2 1 6 10 8 3 0 4 6 4 4 4 0 1 2 1 1 2 2 1 2 1 0 1 2 2 1 1 1 2 1 0 0 1 3 4 2 2 6 5 3 2 3 2 2 2 1 3 6 7 7 8 8 4 1 2 6 5 5 5 6 7 5 4 3 6 2 3 11 16 18 20 19 17 16 13 13 11 9 8 8 9 9 9 9 9 8
2 2 1 1 3 4 5 4 4 4 3 4 3 1 3 2 1 1 1 1 1 1 1 1 2 2 2 3 2 2 2 0 0 1 3 4 4 3 1 5 4 4 4 3 1 3 4 3 5 7 10 11 10 9 4 0 5 10 10 8 7 7 7 8 8 12 5 5 9 19 12 11 21 23 18 18 17 13 10 9 10 9 8 8 8 8 9 9
2 3 2 1 2 2 3 2 3 5 4 3 3 2 3 2 2 2 2 0 1 1 1 0 2 4 5 5 3 2 2 1 2 3 2 2 2 3 2 2 2 4 4 2 2 4 5 4 4 4 8 10 9 11 9 5 8 10 11 12 10 8 10 13 19 20 8 5 17 22 12 12 20 22 21 20 18 14 12 12 12 10 9 9 8 9 9 10
2 3 0 2 2 3 2 2 5 6 4 3 2 2 4 5 5 4 2 2 1 2 2 2 5 6 6 5 4 3 3 2 2 4 3 2 2 0 1 2 1 0 3 3 0 2 4 4 2 2 5 9 9 11 9 6 7 10 13 14 12 11 14 17 20 21 13 14 21 23 21 22 21 21 23 22 17 13 13 13 13 12 12 10 10 10 10 10
2 3 2 3 4 2 1 2 4 5 3 3 2 2 4 6 7 4 2 4 2 2 2 3 6 4 5 5 5 4 7 7 4 5 5 4 3 3 3 3 2 1 1 2 1 1 2 3 1 3 4 8 5 4 5 4 6 11 16 18 15 13 14 16 18 17 11 14 20 20 19 21 20 19 18 16 15 12 11 13 13 12 10 9 9 10 10 10
4 4 6 6 3 2 1 2 3 4 1 1 3 3 3 6 8 4 2 4 5 5 5 6 5 3 3 3 6 8 9 8 6 7 8 6 4 4 3 2 4 5 2 2 1 1 2 3 1 5 3 6 2 5 7 6 7 12 19 22 17 11 10 11 12 11 9 11 13 12 10 15 16 11 7 9 10 9 10 13 13 10 8 8 9 10 10 10
6 4 4 6 3 1 0 1 2 2 2 3 3 4 3 5 6 5 2 1 2 3 6 7 6 4 2 4 9 10 7 7 7 6 5 4 3 3 3 2 5 6 5 4 1 1 3 2 1 2 2 5 2 4 7 8 9 11 13 12 10 8 8 7 8 10 10 9 6 7 9 12 10 7 8 11 10 10 11 11 10 10 10 8 9 10 10 11
Wind_Direction
358 356 349 346 338 331 318 311 298 293 296 288 283 273 272 274 276 281 283 291 302 317 329 337 358 26 51 134 129 119 104 85 67 52 50 22 360 355 350 341 332 334 340 345 349 91 145 131 100 144 142 139 19 47 110 50 61 62 87 103 216 199 158 237 190 188 141 135 153 12 63 119 128 100 93 60 44 66 76 65 66 62 55 57 72 85 98 112
352 347 337 333 326 320 312 307 301 300 300 295 292 283 280 275 274 281 283 291 300 312 323 329 357 33 84 145 144 117 99 68 53 45 30 6 360 351 345 339 329 329 338 348 0 60 140 173 309 122 110 104 355 7 74 17 55 83 119 101 240 195 108 319 238 183 114 130 129 62 56 82 95 294 5 74 29 47 78 62 57 67 50 47 60 76 90 99
349 347 338 329 320 315 306 302 301 299 299 296 292 286 281 274 273 276 278 284 289 305 319 326 0 43 105 157 163 137 100 45 43 23 4 360 352 345 342 335 323 324 334 338 337 6 135 156 149 110 76 85 342 6 59 10 37 105 112 91 240 179 81 359 18 86 104 126 118 93 81 63 33 343 50 109 83 43 72 69 61 76 52 30 38 63 81 90
351 347 335 326 317 311 307 307 308 304 303 296 290 286 277 273 270 266 270 273 283 300 310 314 332 26 116 169 178 189 322 46 35 337 355 355 344 341 337 328 322 320 327 330 316 294 146 125 100 84 86 98 338 19 56 353 19 73 74 96 243 149 73 6 29 71 79 104 109 110 97 73 21 22 49 127 96 48 37 17 65 105 93 57 40 62 81 87
355 351 340 331 321 316 318 317 317 312 305 295 286 278 270 268 263 262 267 266 280 280 247 306 287 334 137 167 178 185 48 45 334 343 358 350 343 339 332 329 320 315 327 330 311 147 140 110 70 56 76 86 359 37 41 345 65 73 60 36 310 128 102 24 38 63 72 91 90 89 85 82 37 33 15 69 109 119 201 22 58 87 78 85 80 80 85 85
9 5 353 340 329 324 324 321 322 318 308 299 290 279 268 257 251 252 255 258 263 231 234 246 253 331 147 145 147 128 80 100 322 350 350 342 342 337 334 331 321 324 327 322 324 116 113 59 60 73 66 58 47 73 8 340 56 94 58 21 11 66 100 71 37 43 68 85 72 79 102 107 96 64 12 46 87 107 91 74 69 62 66 91 93 89 86 83
26 15 4 355 348 342 334 333 332 326 316 307 298 288 275 256 242 232 227 231 211 199 191 171 172 118 137 121 103 75 84 118 330 342 335 336 338 336 344 334 332 339 330 330 101 120 99 67 111 142 84 90 123 101 71 20 50 87 92 41 39 54 72 70 68 69 75 81 78 89 90 55 81 98 41 48 60 42 61 68 72 72 79 89 88 85 86 89
31 22 15 12 11 7 356 351 348 342 331 323 309 289 276 257 230 208 194 182 183 190 173 165 165 137 129 116 97 61 57 323 331 339 332 333 341 351 355 352 0 19 62 49 82 162 114 86 161 158 90 109 129 113 98 56 47 72 105 100 65 58 72 79 83 86 82 88 93 80 72 51 79 109 87 52 39 36 61 68 72 80 81 81 81 84 92 97
33 25 22 23 18 13 9 7 3 348 326 328 320 308 277 244 207 184 178 180 186 178 167 152 148 147 131 80 85 74 352 331 337 341 335 336 359 11 9 37 48 91 76 48 61 129 141 157 184 172 144 132 89 89 18 59 57 83 101 102 97 92 87 85 79 81 85 97 92 80 75 78 100 96 78 60 4 55 66 61 58 71 74 66 69 84 99 104
33 26 24 22 18 19 21 22 22 17 10 40 0 359 55 169 160 159 163 164 167 169 173 154 154 168 165 29 73 74 342 346 348 342 341 353 38 34 37 48 49 66 71 53 55 68 67 185 174 141 131 101 65 22 353 95 117 108 106 92 94 104 94 78 81 91 90 34 52 101 121 239 301 92 114 197 187 85 76 55 42 62 68 56 65 82 102 109
31 27 25 21 24 28 31 31 32 40 52 71 56 51 89 125 136 143 144 138 140 132 129 124 125 121 89 70 82 55 352 357 354 350 357 36 53 42 45 44 47 56 63 56 45 35 25 153 142 113 114 91 77 42 39 107 117 119 112 84 70 91 92 69 77 142 91 40 54 116 129 3 10 42 125 172 148 101 98 85 60 75 75 62 73 84 108 115
29 29 26 25 33 34 37 39 38 47 58 73 75 81 100 120 128 129 124 121 122 119 118 110 102 98 76 67 77 13 0 4 2 10 33 58 48 44 46 44 51 56 65 61 32 24 37 128 109 82 54 108 111 72 83 129 115 121 104 90 94 58 60 17 16 318 48 124 185 114 99 355 359 13 128 142 134 105 104 125 123 136 171 128 81 92 125 135
24 30 30 32 40 42 46 49 47 54 67 81 87 93 105 121 127 128 124 120 122 120 121 96 39 78 68 68 57 17 11 10 14 38 61 59 53 50 50 53 61 63 69 72 54 53 72 95 96 90 71 97 114 117 135 161 84 80 51 92 130 47 26 352 347 341 52 139 209 16 46 265 274 240 194 155 138 122 133 174 194 197 219 229 232 241 193 178
17 28 34 40 51 56 60 66 69 71 80 87 91 97 106 119 127 135 135 128 128 120 104 76 88 99 75 118 83 18 13 19 28 39 43 50 73 63 63 70 72 68 69 74 67 65 81 86 85 89 48 79 124 117 108 66 30 78 62 60 96 114 18 353 10 17 66 143 195 80 247 240 226 222 199 174 148 145 170 197 204 208 220 228 231 236 233 213
8 24 36 45 63 75 79 83 83 82 90 93 96 99 103 114 125 136 139 130 119 111 96 89 100 103 73 100 35 9 10 23 27 26 26 38 62 65 68 76 77 71 67 69 68 66 73 76 70 71 40 45 104 107 85 35 28 62 91 19 34 108 188 346 21 48 107 244 70 128 222 268 219 207 185 173 158 161 187 205 209 211 214 221 227 228 238 237
2 20 36 49 70 91 96 93 91 89 94 98 97 97 99 105 113 121 128 124 106 88 68 63 55 88 89 34 337 2 11 15 13 16 28 36 42 55 73 79 80 74 68 58 62 62 57 65 64 67 85 51 67 95 80 48 15 358 88 166 208 116 139 308 22 32 17 258 8 80 194 245 244 200 170 173 176 176 196 213 216 215 218 216 218 228 236 243
3 18 33 54 77 115 113 100 97 95 96 99 96 94 94 95 104 112 114 115 100 71 59 46 20 80 78 354 347 350 350 352 358 13 27 30 35 47 74 90 52 36 58 42 40 39 33 49 74 50 67 54 45 80 87 47 287 288 57 112 168 141 146 166 191 349 9 168 250 5 173 221 289 202 172 182 188 185 203 217 218 215 220 220 218 229 230 233
3 15 32 59 100 136 126 110 107 105 103 100 96 94 91 87 89 85 77 106 119 29 41 27 23 86 26 352 348 310 314 332 358 14 18 17 26 40 50 57 11 357 16 24 26 25 15 27 65 71 40 24 26 50 115 200 218 192 162 130 131 142 142 139 193 327 10 53 43 14 220 250 309 202 186 194 191 194 213 217 220 220 218 220 220 226 228 229
359 9 26 55 115 152 144 129 122 117 113 107 100 97 89 80 77 64 51 57 59 8 42 355 15 112 294 315 313 311 313 339 11 16 14 6 357 29 38 35 36 36 37 18 11 14 21 31 39 51 4 343 347 15 176 225 208 174 165 138 144 142 140 232 227 318 30 59 19 354 256 262 243 208 207 210 196 203 227 230 227 226 221 223 224 227 228 229
353 0 11 39 115 165 161 147 137 133 129 122 106 78 78 65 56 38 33 50 66 73 105 292 7 97 0 305 328 339 338 2 24 17 10 1 341 9 22 17 36 52 47 11 338 354 54 66 39 350 285 286 282 253 213 241 166 136 106 95 117 119 121 260 255 308 26 89 342 310 287 269 227 224 223 214 204 214 230 233 230 227 222 224 226 230 229 230
351 349 348 3 127 166 168 163 157 154 154 152 30 43 146 147 73 197 358 54 48 43 72 75 113 80 13 326 349 358 15 6 17 13 7 3 351 14 5 9 43 42 16 324 308 348 54 70 8 293 261 268 287 235 179 111 70 81 99 105 75 83 170 234 240 314 345 98 289 2 329 272 237 234 232 207 210 225 222 222 228 225 224 226 226 231 232 235
352 340 333 338 169 173 176 175 175 180 199 265 28 70 144 153 127 147 139 93 16 22 56 43 56 38 340 25 7 10 68 16 1 0 3 6 18 33 10 31 63 48 342 5 18 20 50 61 308 294 256 244 25 66 107 90 75 64 90 111 79 79 138 317 286 335 5 281 267 22 330 272 252 237 235 217 218 231 221 219 226 220 223 227 225 229 231 235
351 337 321 321 205 175 178 183 192 207 231 263 97 108 121 124 134 142 105 98 60 0 27 33 50 14 354 25 10 14 63 33 348 340 354 4 25 53 71 48 63 66 5 27 93 92 70 330 308 310 174 107 52 35 60 72 65 60 81 101 114 145 117 202 273 357 17 38 138 131 278 278 269 249 244 226 218 238 230 224 233 225 225 227 224 226 225 227
347 337 309 299 161 164 178 188 202 217 219 201 140 138 137 132 141 138 85 90 70 0 6 29 89 38 17 7 359 14 78 47 101 334 350 12 48 39 81 81 70 58 17 41 87 94 96 280 326 41 74 92 75 35 43 69 46 18 98 119 142 188 170 199 277 26 17 24 82 93 347 292 257 236 252 230 201 242 236 227 241 235 231 235 235 234 226 225
347 337 291 256 160 161 167 172 183 178 150 140 144 147 144 139 147 129 82 71 17 326 341 26 78 31 9 346 353 11 119 42 92 334 352 20 33 25 75 93 78 56 302 43 76 83 70 297 36 65 50 66 87 49 28 96 78 3 215 155 162 172 162 147 59 54 27 0 4 60 17 294 283 243 250 235 196 242 228 223 243 239 230 233 237 238 231 229
351 337 243 188 164 159 156 147 140 141 131 132 150 152 148 148 155 134 85 63 13 310 346 7 18 7 351 343 342 345 96 9 314 1 12 18 1 103 78 346 62 103 223 106 79 91 24 354 60 85 74 65 74 57 352 126 95 48 238 145 123 123 129 139 133 89 42 273 283 67 123 266 304 274 249 232 237 251 235 230 244 241 231 228 232 235 230 228
358 345 197 178 170 163 157 164 160 148 126 157 157 154 154 155 160 179 79 42 359 301 351 328 334 10 357 340 345 53 89 313 302 24 20 14 348 69 73 354 38 75 199 97 62 44 352 359 26 51 61 63 65 42 319 126 100 39 255 137 120 120 145 156 120 108 206 259 323 17 132 232 287 271 256 220 252 263 257 247 247 242 233 230 232 233 229 227
4 4 176 173 175 173 161 151 164 160 155 166 161 158 161 165 221 71 80 54 332 336 9 306 330 3 349 357 20 71 149 311 20 2 354 18 18 46 74 45 117 104 343 105 119 268 9 10 14 39 52 59 77 313 222 131 92 280 245 164 166 145 144 138 102 97 354 0 312 268 150 191 271 271 314 22 258 267 258 247 244 240 234 231 233 233 230 229
14 33 139 150 173 182 187 162 167 170 159 159 159 163 168 181 314 61 74 114 303 6 215 321 350 340 345 9 18 36 17 4 62 316 335 26 33 44 86 112 132 117 25 89 138 206 149 26 98 99 74 57 247 259 189 132 60 199 139 80 86 85 78 85 93 95 44 2 262 246 179 165 271 272 302 21 254 255 252 251 246 239 234 230 232 235 232 230
25 56 124 129 151 164 158 146 153 156 150 150 156 167 173 48 47 68 53 233 326 342 255 13 1 332 7 26 3 5 26 10 337 334 349 23 13 28 82 161 109 94 32 46 84 237 316 299 198 112 84 210 232 267 151 126 74 138 115 64 62 46 41 55 55 78 57 300 262 249 193 140 288 272 233 202 219 217 220 250 260 248 241 232 231 234 231 227
35 60 131 138 139 145 145 128 132 146 144 142 151 157 130 33 63 89 170 257 313 331 6 21 353 8 30 45 4 355 19 353 341 9 16 4 2 14 36 22 54 59 20 22 26 338 354 19 281 275 311 115 97 39 64 33 40 95 91 72 72 3 7 22 356 44 93 261 267 284 274 134 234 261 245 225 235 214 195 218 240 242 243 232 229 232 229 224
42 52 104 144 154 146 134 133 137 143 143 142 143 112 71 50 29 95 269 313 339 330 28 350 324 17 24 38 19 342 343 353 3 42 39 17 32 23 24 55 121 37 2 337 359 354 7 347 309 320 310 55 67 130 13 13 37 70 68 72 77 339 358 351 312 328 214 247 268 337 9 209 237 258 266 258 252 237 215 214 219 227 237 236 231 232 231 224
52 55 78 100 126 122 115 129 137 141 146 142 123 54 74 85 317 230 281 332 12 324 49 301 328 13 18 25 11 331 344 4 1 36 55 71 64 32 349 332 141 91 164 223 16 7 342 304 333 16 316 24 83 110 209 336 33 56 109 102 112 95 26 294 273 287 260 261 298 323 332 283 267 269 258 251 255 249 228 229 230 229 239 244 238 231 235 231
61 64 75 86 98 104 109 123 131 136 142 130 86 58 72 61 235 182 295 267 260 340 31 39 340 12 43 46 336 317 29 22 349 30 16 33 56 16 325 334 14 86 115 81 70 114 65 287 307 46 268 25 68 119 158 146 60 44 163 128 132 154 153 247 236 230 259 287 314 310 293 221 226 266 248 241 266 284 248 242 249 250 249 254 259 249 242 238
61 62 66 72 80 92 106 120 128 135 133 94 68 69 96 234 233 167 245 247 260 343 357 29 53 49 11 353 325 330 103 306 4 46 25 34 84 112 332 313 336 52 102 83 268 136 112 246 260 286 255 84 63 192 131 102 78 190 162 102 94 179 147 173 203 189 201 326 300 269 244 222 220 280 280 267 285 283 262 255 256 257 252 244 257 253 240 238
56 56 55 51 55 74 100 113 121 134 115 83 66 60 165 206 204 175 201 223 150 157 353 346 51 64 345 317 336 357 10 310 22 46 18 40 165 213 247 259 275 55 120 147 209 145 82 277 287 315 292 78 89 189 98 51 148 78 44 200 226 179 121 110 236 282 74 320 276 244 258 278 312 295 290 328 301 276 263 253 243 250 250 226 242 249 240 238
50 57 49 35 33 52 88 100 103 104 81 79 81 118 207 207 168 175 191 158 147 111 92 26 349 57 317 300 313 319 330 317 20 47 15 7 218 194 199 263 229 170 184 154 190 185 139 281 298 10 148 343 44 131 51 22 140 108 279 223 209 118 89 94 281 345 32 252 269 276 258 273 296 283 312 359 308 276 261 245 242 253 249 231 243 247 243 242
50 77 49 22 17 28 55 64 61 72 74 69 81 152 200 196 160 178 179 165 152 77 89 136 205 130 192 211 286 295 326 330 353 34 79 278 260 163 158 244 189 180 289 126 125 157 114 299 303 339 167 307 1 86 357 337 117 147 194 186 118 132 254 42 126 287 325 280 281 297 282 262 212 231 291 296 269 265 262 249 245 252 241 231 244 249 250 252
68 93 36 4 4 19 45 69 64 58 70 77 103 170 173 188 241 216 181 156 108 89 99 182 183 92 171 173 226 277 332 7 1 38 107 186 288 165 150 188 174 162 314 112 133 180 96 113 287 288 237 298 0 80 249 285 54 50 75 39 39 137 181 180 134 183 206 270 286 318 313 273 217 193 211 240 248 246 250 254 246 244 239 230 236 244 248 249
55 94 2 351 2 36 59 65 62 50 65 114 168 180 133 196 236 261 229 195 137 123 149 188 162 115 187 203 219 243 0 123 156 110 176 213 271 230 188 164 159 153 96 75 111 133 68 124 243 293 315 299 275 205 200 186 153 92 108 255 325 89 146 220 142 149 141 198 250 295 291 270 228 170 194 224 241 237 233 240 240 241 241 236 233 236 244 245
55 91 326 346 355 147 68 58 56 51 87 109 144 156 114 168 160 8 346 7 171 207 159 157 150 142 167 175 232 218 68 43 153 137 237 232 207 250 213 158 159 159 120 86 134 175 119 151 203 286 315 236 241 237 198 185 170 157 177 201 189 145 121 115 284 281 113 176 193 181 280 275 228 164 205 222 233 241 232 227 237 247 246 244 241 236 239 244
61 105 321 349 10 141 73 60 35 45 101 101 110 142 93 109 123 106 353 39 158 201 85 112 130 133 153 158 201 192 147 164 194 150 236 220 197 221 207 136 134 131 122 148 248 222 138 110 154 263 253 234 256 278 162 183 164 149 183 192 152 136 135 153 235 255 154 228 197 122 272 278 243 172 210 224 232 253 244 219 234 255 256 252 252 250 246 247
79 155 345 5 82 132 69 64 332 24 71 220 350 69 25 84 118 140 180 22 237 164 49 59 143 115 165 175 153 163 184 201 190 188 220 232 233 229 184 141 129 107 102 140 267 233 115 80 23 283 292 310 314 334 16 42 109 155 221 174 147 161 151 157 186 186 171 226 203 117 265 272 265 200 227 251 278 287 271 230 230 252 267 263 258 262 259 253
118 171 8 15 18 181 83 103 151 76 127 200 63 39 347 104 130 102 201 243 217 145 110 131 198 152 144 129 112 166 201 198 214 235 201 202 242 238 151 158 159 140 153 188 184 183 236 209 69 337 329 334 339 349 346 333 287 222 242 199 166 133 98 106 159 125 239 228 191 186 265 262 250 245 276 296 303 286 273 248 230 242 258 262 258 261 258 256
88 132 326 13 36 71 109 153 145 138 163 110 92 93 0 58 105 173 172 185 192 167 144 157 180 111 111 104 79 136 200 205 243 271 39 218 255 296 138 178 181 175 213 202 167 170 228 197 141 147 276 281 290 298 292 282 243 241 250 219 207 163 140 163 163 128 241 232 169 186 256 269 281 293 289 286 275 273 275 264 244 240 246 252 255 256 256 255
95 80 314 354 27 55 70 79 100 116 154 132 104 180 133 94 296 281 142 156 188 156 104 87 147 97 85 120 114 247 249 255 321 286 235 238 259 292 165 171 176 202 180 127 88 74 95 226 206 191 209 228 242 253 246 134 256 268 263 232 212 191 174 147 108 194 216 168 189 231 247 274 288 285 282 283 278 274 277 271 259 251 246 248 249 250 252 249
91 108 111 12 13 40 42 25 57 92 147 143 119 180 173 145 296 322 129 204 198 139 83 66 148 149 172 170 161 234 240 215 50 219 219 225 253 295 204 156 183 223 166 113 55 102 94 289 245 207 227 243 254 267 277 309 258 261 264 250 217 188 173 165 205 232 201 90 267 256 240 256 276 279 281 284 283 283 281 274 274 271 258 251 249 248 249 249
67 146 176 100 96 104 78 76 104 91 85 94 98 146 156 154 199 194 191 229 48 176 174 195 231 207 191 174 154 182 237 282 259 234 228 231 266 323 326 167 211 221 159 110 347 112 125 261 245 198 248 261 268 274 272 263 260 260 261 258 238 199 184 198 228 238 211 193 257 268 268 258 268 279 282 280 283 291 291 284 283 282 272 262 259 256 254 255
84 121 282 20 103 156 144 102 114 102 82 79 96 166 168 176 204 219 191 96 357 275 191 213 251 223 190 179 146 155 207 203 258 254 218 195 214 283 303 243 249 296 136 124 25 139 155 245 232 149 278 273 262 267 268 263 272 274 265 256 241 220 210 217 238 245 233 233 254 268 277 273 269 272 276 280 287 291 289 286 282 277 273 269 265 261 258 257
144 150 151 65 76 108 48 48 91 96 71 72 124 188 172 178 201 223 193 153 177 245 178 211 239 203 173 184 162 193 216 189 209 242 184 166 231 209 211 222 165 71 85 132 162 221 201 253 171 96 306 286 279 304 299 255 254 273 274 264 245 226 224 231 244 250 244 245 254 263 272 273 270 266 269 278 285 286 282 279 277 273 268 268 266 260 256 256
110 130 140 113 81 355 5 36 80 103 117 185 173 180 189 202 200 187 194 190 175 177 183 198 202 144 114 185 203 237 235 193 207 226 184 174 221 203 206 219 142 133 169 172 138 134 180 255 12 63 326 286 356 6 319 291 273 272 275 271 255 223 214 226 235 233 214 223 250 264 265 264 268 276 275 265 267 274 272 271 276 277 266 257 257 258 256 255
97 92 117 105 85 324 42 84 71 114 193 221 172 167 206 226 204 174 175 233 185 180 188 179 162 136 125 208 225 241 235 204 222 234 195 187 216 192 193 185 145 145 161 167 149 114 148 170 88 70 289 275 317 340 314 320 312 282 264 256 238 202 199 226 250 240 208 194 228 247 246 258 278 305 296 281 276 270 266 266 271 275 271 256 249 252 256 257
Height
808 808 807 807 806 806 805 805 804 804 804 804 805 805 805 804 804 804 804 805 805 805 805 805 804 805 804 804 804 804 804 804 804 804 805 808 808 807 806 805 803 802 802 801 800 799 800 800 801 801 801 803 804 806 806 808 809 810 818 825 827 829 833 837 838 838 838 848 860 862 862 863 868 871 871 874 877 881 882 885 888 887 888 889 890 890 889 889
808 808 807 807 806 806 805 804 804 803 803 803 803 803 804 804 803 803 804 804 805 805 805 804 804 805 804 804 805 804 804 803 803 804 807 808 807 806 806 804 803 802 801 800 799 799 799 800 800 800 802 803 806 806 806 809 809 816 825 825 828 834 844 851 846 842 843 851 862 866 868 866 869 874 871 876 884 884 882 888 890 889 891 891 891 890 889 888
808 808 807 806 806 805 805 804 803 803 803 803 802 802 802 802 803 803 803 804 804 804 804 804 804 804 804 804 804 804 804 803 804 807 808 808 807 806 805 803 803 802 801 800 799 799 799 799 799 800 802 804 808 807 806 810 812 822 825 821 834 844 850 856 852 849 850 854 861 867 870 871 875 876 874 880 887 888 888 891 891 891 894 893 893 891 890 889
808 807 807 806 806 805 804 804 803 803 802 802 802 801 801 802 802 802 803 803 803 803 803 803 803 802 803 803 804 805 803 804 808 810 808 808 807 805 804 803 802 801 801 800 799 799 798 798 798 800 802 805 810 810 811 814 815 825 831 832 844 849 851 858 857 856 857 858 861 866 868 871 878 877 879 880 877 887 895 894 894 894 896 895 894 893 892 891
807 807 806 806 805 804 803 803 802 802 802 801 801 800 800 800 801 801 801 801 802 802 802 802 802 803 803 803 804 804 804 810 812 809 808 808 806 805 803 802 801 801 800 799 799 798 798 798 799 801 803 806 810 810 815 821 821 832 848 853 853 849 853 862 861 859 861 861 862 866 866 872 881 882 885 880 873 887 896 895 896 895 896 896 895 894 894 893
807 806 806 805 804 803 803 802 802 801 801 800 799 799 799 799 800 800 800 801 801 801 802 802 802 803 803 803 804 803 806 814 812 808 809 807 806 804 802 801 800 800 799 799 799 798 799 799 800 802 805 809 813 814 819 826 823 830 852 861 857 853 856 863 863 863 864 862 863 868 872 879 882 884 891 887 885 894 896 896 897 896 897 896 896 896 895 895
807 806 805 805 804 803 803 802 801 800 800 799 799 798 798 798 799 799 800 801 801 801 802 802 803 803 803 804 804 804 808 812 811 809 809 806 805 804 802 801 800 799 799 798 798 798 800 799 801 804 806 811 816 819 823 828 827 832 852 864 863 861 863 867 868 868 867 866 871 873 875 881 879 880 891 894 896 898 896 898 897 897 898 896 897 897 896 896
807 807 806 805 804 803 803 802 801 800 799 799 799 798 797 797 798 800 801 801 802 802 802 803 804 803 804 804 804 807 811 812 810 809 807 805 804 803 801 800 799 800 799 798 799 799 800 800 803 805 808 813 815 820 824 826 831 843 857 864 866 868 870 871 871 871 871 873 876 875 879 886 884 884 892 897 898 898 897 898 898 898 898 898 898 897 897 897
808 807 806 805 804 803 802 801 801 800 799 799 798 798 797 797 798 799 801 802 802 802 803 803 804 804 804 805 805 810 815 813 811 809 807 804 803 802 802 801 800 800 799 799 799 799 800 802 804 804 807 815 817 822 827 823 831 850 860 864 868 871 873 872 872 873 872 876 874 876 887 891 888 887 892 899 898 898 899 898 899 900 899 900 899 898 898 897
808 807 806 805 804 803 802 801 800 799 799 798 797 797 797 797 798 800 801 802 802 802 803 803 804 805 805 805 807 814 816 813 811 810 806 804 804 803 802 801 801 800 800 800 800 800 800 801 804 803 805 815 823 829 832 828 838 855 860 865 869 869 872 871 872 873 871 876 873 874 887 889 888 885 886 897 900 898 900 900 900 900 900 901 899 900 899 898
808 807 806 805 804 803 802 801 800 799 798 798 798 797 796 797 798 800 801 802 803 802 803 804 805 805 805 806 811 817 815 812 812 809 806 806 804 804 803 802 802 801 801 801 801 801 801 802 803 804 806 814 827 838 842 841 848 856 854 862 872 870 872 871 870 871 870 876 877 876 883 885 884 883 887 896 899 899 900 901 901 901 901 901 900 900 899 899
808 807 807 805 804 803 802 801 800 800 799 798 798 797 797 798 799 801 802 802 803 803 803 804 805 805 805 807 814 817 815 813 812 809 807 806 805 805 805 804 803 802 802 802 802 802 802 803 802 805 811 816 831 841 848 851 849 851 848 856 871 868 866 870 870 870 869 874 879 874 871 876 883 887 894 898 898 901 901 901 902 901 902 901 901 900 900 899
809 808 807 806 805 804 803 802 801 800 800 799 799 799 799 799 801 802 803 804 804 804 805 804 805 805 805 810 816 816 814 814 811 809 808 807 807 807 806 806 805 804 803 802 803 803 802 804 802 808 815 821 835 839 844 852 846 848 851 854 865 862 862 871 871 869 870 873 878 873 861 867 886 893 896 898 898 901 901 902 902 901 902 901 901 900 900 899
809 808 808 806 806 805 804 803 802 802 801 801 800 800 801 801 803 803 804 805 805 805 805 805 805 804 807 814 816 814 815 814 810 809 808 808 808 807 807 807 806 805 805 804 805 805 805 805 803 810 820 824 834 837 842 848 847 850 852 855 863 858 862 873 873 871 871 874 879 875 859 864 885 893 896 899 899 900 900 901 902 901 902 900 901 900 899 899
808 808 808 807 806 805 805 804 803 803 802 802 802 802 803 803 804 804 805 805 806 807 806 806 806 805 810 815 815 815 815 812 811 811 810 810 808 808 808 807 807 806 806 806 806 807 807 806 807 818 829 828 831 835 840 843 849 855 849 854 864 859 865 874 876 877 872 874 879 874 861 865 882 889 895 898 898 900 899 900 901 901 901 900 900 900 899 899
808 808 807 807 806 806 806 805 804 804 803 804 803 804 804 804 805 805 806 806 807 807 806 807 807 806 812 817 815 814 815 813 814 814 812 811 809 809 809 808 808 807 807 808 807 808 806 808 818 829 832 834 836 835 840 844 850 856 850 853 862 860 866 871 875 882 879 875 876 873 863 864 878 887 894 898 897 900 899 899 901 899 900 899 899 899 899 898
807 807 807 807 806 806 806 806 806 805 805 805 805 806 805 806 806 806 807 807 807 808 807 808 808 808 813 817 817 817 818 818 817 815 813 812 811 810 809 809 810 808 808 807 806 809 810 816 827 833 837 844 847 838 837 845 847 851 855 858 866 866 865 866 870 879 882 875 873 877 870 868 883 891 893 896 896 898 898 897 898 898 898 898 898 898 897 897
807 806 807 806 807 807 807 807 807 806 806 807 807 807 806 808 808 807 808 807 807 807 807 810 809 812 820 821 822 823 821 819 818 816 814 813 812 811 810 811 811 809 809 810 812 816 817 825 830 831 838 845 851 846 837 843 846 844 848 852 861 869 865 863 869 877 882 874 871 875 869 872 890 894 892 895 896 896 896 896 896 896 897 896 897 896 896 896
806 806 806 806 807 807 807 808 807 807 807 807 808 807 807 808 807 809 810 809 812 814 817 821 818 822 828 827 826 824 820 820 819 817 815 814 813 813 812 813 814 813 814 815 820 827 827 829 832 835 844 851 860 863 852 852 853 844 845 848 852 862 867 871 874 881 885 875 871 875 871 877 890 892 892 894 895 895 894 895 895 895 895 895 895 894 894 893
806 806 806 806 806 806 807 808 808 808 808 808 808 808 809 810 813 818 819 817 823 827 828 829 827 828 830 828 826 822 820 820 819 818 816 815 814 813 815 816 816 818 826 829 829 836 836 837 848 855 862 865 868 873 869 867 865 853 849 854 859 861 866 876 879 882 888 874 873 887 884 882 888 890 892 892 894 895 893 894 893 893 893 892 892 891 890 889
806 806 806 806 806 806 807 807 808 808 808 809 808 809 811 813 816 822 825 827 830 830 829 830 829 829 829 829 827 824 823 820 818 819 817 817 815 814 820 822 817 823 839 845 840 839 838 843 859 867 869 872 871 874 871 865 864 857 852 856 864 866 866 878 881 881 888 873 873 894 884 873 883 886 888 891 892 890 889 890 889 889 890 889 889 887 886 886
806 806 806 806 806 806 807 807 808 808 808 809 809 810 812 812 813 816 819 827 832 830 829 830 828 829 829 828 828 826 826 824 821 821 820 819 816 817 827 830 828 835 847 846 839 841 846 852 863 869 871 873 871 872 866 858 859 857 857 855 857 869 872 877 882 884 888 872 870 891 877 861 877 883 884 887 887 885 885 885 884 884 886 884 884 883 883 883
806 806 805 805 806 805 806 807 807 808 808 809 809 811 812 812 814 814 814 823 830 831 830 830 829 831 830 828 829 827 828 832 831 828 826 823 824 827 832 837 840 845 850 845 836 838 847 857 866 871 871 865 861 866 860 851 857 859 857 853 857 874 871 861 872 884 889 880 877 889 880 867 873 876 877 881 881 882 881 882 882 881 880 878 879 879 879 879
806 806 805 805 805 805 806 807 807 809 809 810 810 811 813 813 814 815 817 825 830 831 831 832 832 832 832 832 832 830 831 838 839 835 832 828 831 834 836 842 844 847 857 857 848 847 854 864 872 872 868 861 853 857 858 848 854 863 860 856 860 871 870 865 876 883 884 885 886 885 871 860 867 870 867 872 879 880 877 879 878 876 876 875 875 874 873 873
806 805 804 805 805 805 807 807 808 809 809 810 811 812 814 813 815 815 817 827 832 832 832 832 833 833 834 834 832 834 835 837 840 839 836 835 835 836 840 846 844 848 859 859 853 855 862 870 873 866 863 862 852 855 867 860 852 858 862 864 862 863 868 873 880 877 867 867 881 884 855 839 859 870 864 868 876 873 873 876 872 870 872 873 872 869 868 869
806 804 805 804 805 806 806 807 808 809 809 811 811 813 814 814 816 814 818 830 835 837 835 832 835 835 835 836 835 836 835 837 841 840 838 837 838 837 840 848 849 851 858 858 856 859 865 870 871 866 860 859 855 857 872 870 852 851 864 871 868 866 867 872 875 869 859 860 880 889 862 844 849 847 853 870 873 869 870 870 865 864 866 866 865 862 862 864
805 804 804 804 805 806 806 807 808 809 810 811 812 814 814 815 816 813 821 835 840 842 841 835 837 837 837 841 839 836 838 841 841 840 841 839 839 838 838 847 850 853 863 860 853 859 865 864 864 865 859 856 856 858 869 872 856 852 870 876 871 869 867 871 872 867 869 874 881 886 875 863 850 838 858 877 868 864 866 863 860 858 858 858 857 856 856 857
805 804 804 804 805 805 807 807 808 810 810 811 813 814 814 816 815 814 826 842 846 845 845 841 838 838 840 842 841 841 845 847 842 840 843 840 840 839 840 853 855 856 866 856 848 863 869 863 863 862 859 858 860 863 871 873 862 862 878 880 875 874 872 875 874 870 880 878 866 874 879 868 849 841 867 879 860 850 848 846 849 848 849 851 849 850 850 850
805 804 804 805 805 806 807 807 808 810 810 812 813 814 816 815 814 820 834 847 848 847 848 844 839 842 846 844 845 849 849 850 849 846 845 843 842 842 846 859 859 857 864 856 852 865 869 868 871 866 862 863 864 869 873 870 867 873 882 880 878 881 878 880 876 868 878 873 854 863 873 864 844 828 847 866 853 839 830 830 839 840 842 845 844 844 844 845
806 805 805 805 805 806 807 808 809 810 811 813 813 815 816 815 820 832 843 848 848 850 851 846 846 852 852 845 846 854 853 854 858 852 848 848 847 848 854 859 857 856 859 860 861 867 871 874 875 870 867 869 869 874 878 874 873 877 879 873 870 875 875 879 881 874 873 866 857 869 875 868 853 827 826 839 832 822 818 820 827 831 835 838 838 839 839 840
807 806 806 805 806 807 807 809 810 811 812 813 815 816 816 822 833 841 848 852 852 852 852 852 857 860 858 854 854 858 857 856 862 857 852 856 855 855 858 856 855 853 853 858 862 865 869 868 869 871 871 874 871 871 880 883 881 879 872 864 860 864 869 871 875 877 869 857 862 881 884 876 860 828 814 823 823 823 820 812 812 815 821 828 833 835 835 836
808 807 806 806 807 807 808 809 811 813 813 814 816 816 820 832 839 844 851 853 851 855 858 859 862 862 863 863 863 865 863 860 865 866 866 869 869 871 871 869 867 855 849 860 862 860 863 862 868 872 872 876 868 861 870 877 878 875 867 862 858 859 865 861 864 875 870 862 874 888 882 875 861 828 813 819 820 823 825 817 812 812 813 819 828 831 832 833
810 809 807 807 808 808 809 811 812 813 814 816 817 819 827 834 841 855 862 854 853 863 866 865 866 868 865 860 863 870 867 865 868 871 874 874 873 879 882 885 885 867 858 868 865 856 856 859 866 867 867 875 869 858 858 862 868 868 864 861 856 860 866 861 868 879 870 865 882 895 884 867 849 823 813 815 811 815 824 825 821 819 818 819 825 830 830 830
812 811 809 809 809 809 811 812 813 815 816 817 818 825 833 837 849 866 864 858 865 869 869 871 868 865 864 862 868 872 865 866 871 870 871 870 868 873 876 880 885 878 869 872 873 867 858 853 859 863 864 870 871 868 866 866 868 873 880 874 859 860 862 857 861 862 858 868 884 891 875 847 826 812 811 817 819 822 824 828 830 827 826 826 827 829 828 827
813 812 811 811 812 812 814 814 815 816 816 818 823 830 836 843 857 864 859 863 871 867 869 876 867 859 863 867 873 875 867 865 871 872 869 869 870 874 877 877 882 883 870 863 874 882 869 857 862 869 871 871 870 875 879 871 866 878 889 876 862 864 865 873 887 886 886 887 882 878 863 838 823 811 813 822 821 821 823 825 830 825 824 829 827 825 825 823
814 813 812 813 814 815 816 816 817 817 817 820 825 834 845 854 861 863 864 869 870 866 866 867 863 858 859 864 869 873 872 868 870 870 869 877 880 880 883 882 885 886 875 867 874 878 866 857 866 871 870 874 874 875 880 871 863 875 878 865 873 884 873 876 897 912 915 894 872 872 854 832 826 810 808 821 814 812 819 820 821 818 819 826 822 819 820 819
815 814 814 816 817 817 818 818 818 817 818 821 828 845 862 868 867 869 873 873 872 873 864 856 863 864 860 862 864 866 869 869 870 867 867 876 877 877 883 884 885 887 883 879 876 878 871 857 864 873 865 872 881 876 877 880 873 870 868 868 881 887 878 878 881 887 898 886 871 873 854 833 833 815 803 810 805 800 805 808 814 817 819 822 818 815 816 814
815 815 816 818 819 819 819 818 818 818 820 828 844 861 870 870 871 875 877 874 873 872 862 855 865 872 868 864 863 870 871 863 865 867 867 871 870 874 881 880 883 888 890 886 875 882 885 859 859 879 871 870 882 874 869 879 882 873 870 878 879 868 868 879 878 870 878 882 870 871 869 851 836 823 806 800 796 792 793 798 806 807 809 813 812 811 813 812
815 816 819 822 821 820 820 818 820 820 820 834 854 865 868 870 874 876 876 875 873 868 862 861 868 873 874 870 865 874 876 865 867 871 867 868 868 873 881 879 881 887 890 890 878 883 890 865 855 875 878 872 873 869 863 868 879 880 876 881 882 876 873 877 885 882 877 879 870 867 865 835 811 815 807 794 792 791 790 793 796 795 796 803 808 806 807 809
815 817 822 823 820 820 821 818 821 825 830 847 862 865 868 871 872 875 877 875 872 868 864 867 870 867 870 876 873 875 879 874 875 873 870 873 870 869 879 881 880 885 889 891 884 883 889 876 860 865 877 874 863 863 863 858 867 874 872 876 879 887 891 884 891 895 881 876 880 878 855 810 796 811 801 787 789 788 789 792 790 790 792 799 807 806 804 806
815 818 823 823 821 822 821 822 836 849 852 860 867 867 870 869 868 874 878 877 875 872 870 870 870 867 867 872 873 875 878 876 877 876 872 875 870 865 874 880 880 884 885 884 883 880 881 878 869 864 866 859 853 867 877 869 869 867 863 868 869 875 883 877 882 898 898 886 881 882 853 799 791 809 795 785 788 785 792 797 790 790 793 796 803 804 805 804
817 822 825 824 822 821 821 834 857 866 860 861 865 866 868 867 868 872 874 876 874 871 872 871 871 872 871 870 873 877 876 872 875 875 870 873 872 866 875 883 883 884 881 880 884 885 884 883 877 867 861 858 862 878 885 879 878 873 868 873 874 872 870 863 865 881 896 896 893 901 874 804 784 802 791 784 792 793 800 805 799 796 796 799 801 801 804 803
821 824 825 824 823 822 824 839 860 866 862 866 869 869 870 868 868 871 872 872 871 869 869 869 871 871 870 873 876 876 874 869 869 871 871 875 875 873 879 884 884 885 883 880 883 886 885 881 874 864 859 864 873 883 886 883 881 873 870 878 878 871 867 868 874 880 882 880 881 895 873 805 784 805 798 793 804 803 803 807 805 802 800 801 801 799 800 800
825 826 826 824 822 821 823 833 850 861 867 868 867 867 870 870 869 869 868 867 869 868 865 867 872 871 872 877 876 874 874 867 865 871 875 875 874 877 883 884 884 883 881 879 880 880 877 875 873 865 856 854 857 862 866 871 876 870 867 876 875 874 881 884 890 895 882 862 859 870 847 795 784 803 800 799 805 798 796 803 806 805 802 799 799 798 797 796
825 826 827 826 823 824 831 839 846 855 863 863 862 866 867 867 870 870 868 869 872 872 865 867 873 873 875 879 875 876 879 869 865 873 878 877 876 880 884 884 885 883 881 884 885 880 876 877 873 864 860 857 848 841 841 851 867 870 868 873 873 876 881 873 875 885 874 861 864 858 823 783 777 791 791 792 799 794 793 798 801 802 799 797 797 795 793 793
821 823 827 828 829 833 843 852 850 849 857 856 857 867 867 863 868 873 870 869 872 874 870 870 874 873 874 875 871 872 877 876 875 875 875 873 870 876 884 883 884 884 882 885 887 883 883 884 877 865 860 857 846 841 849 857 860 857 858 865 871 877 878 873 875 871 856 861 862 838 814 799 789 789 789 788 790 790 791 791 792 794 794 793 794 791 790 790
821 827 833 831 832 838 844 852 851 849 854 852 851 862 864 861 866 870 869 869 871 873 871 871 873 868 866 869 867 867 874 879 879 875 873 873 871 876 883 884 884 883 882 885 886 885 883 878 876 873 864 859 854 853 862 868 860 853 854 856 862 874 879 876 869 847 837 853 842 809 811 821 801 785 786 786 783 784 787 788 786 786 787 787 787 787 787 786
825 833 844 837 833 840 842 845 850 852 855 856 858 863 862 861 863 862 863 870 872 871 867 865 869 866 864 866 862 862 870 872 871 871 872 874 876 875 875 880 884 881 882 886 886 886 881 872 876 882 871 867 870 865 866 871 867 861 860 858 860 870 874 868 854 837 838 847 823 795 805 816 798 784 782 780 780 782 783 784 782 782 783 783 783 783 783 782
831 835 845 843 839 848 852 852 854 852 852 857 860 862 859 856 856 859 865 869 867 870 868 858 857 862 866 868 863 860 863 859 856 862 867 871 875 873 867 870 879 883 883 883 886 888 879 870 882 891 877 868 871 869 869 874 871 864 861 859 860 863 864 860 847 836 841 842 822 810 815 811 794 786 782 778 780 784 783 781 780 779 779 778 779 779 778 778
827 827 836 841 845 855 858 857 853 847 851 857 853 854 860 854 851 858 866 861 854 862 869 858 852 862 868 869 865 858 856 852 848 855 864 865 869 872 866 859 869 884 884 880 886 889 878 872 885 891 874 861 866 871 871 874 872 864 854 847 849 854 857 857 850 842 845 844 830 826 829 815 792 784 786 784 782 783 782 779 776 775 775 776 776 775 775 773
822 823 827 830 840 853 854 855 856 846 845 850 846 850 857 851 850 855 857 858 855 855 861 857 854 865 872 872 868 858 856 858 853 854 861 860 859 864 862 859 866 875 880 883 885 884 882 878 883 885 867 853 865 873 865 864 866 855 838 824 825 838 845 843 839 836 835 833 829 832 831 808 783 779 784 783 781 782 780 776 773 771 772 774 772 771 770 769
822 825 826 824 835 854 854 853 856 847 839 842 845 850 852 848 855 856 847 855 862 859 861 861 858 863 868 867 864 858 858 863 860 860 864 862 862 863 862 864 866 866 873 884 885 888 890 878 875 882 865 850 870 878 862 859 852 824 805 797 796 811 828 828 822 820 822 823 819 815 802 782 773 779 780 776 776 777 774 771 770 768 768 769 768 767 766 764